Penticton, British Columbia

1:40 AM PDT on September 28, 2016 (GMT -0700)
Penticton

Weather History for CYYF - May, 2014

Change the Weather History Date:

Wednesday, May 14, 2014

  Actual Average Record
Temperature  
Mean Temperature 63 °F -  
Max Temperature 83 °F 65 °F 83 °F (2014)
Min Temperature 43 °F 42 °F 37 °F (2006)
Degree Days  
Heating Degree Days 2    
Growing Degree Days 13 (Base 50)    
Moisture  
Dew Point 44 °F    
Average Humidity 50    
Maximum Humidity 81    
Minimum Humidity 18    
Precipitation  
Precipitation 0.00 in - - ()
Sea Level Pressure  
Sea Level Pressure 30.25 in    
Wind  
Wind Speed 4 mph ()    
Max Wind Speed 14 mph    
Max Gust Speed -    
Visibility 15.0 miles    
Events      
Averages and records for this station are not official NWS values.
T = Trace of Precipitation, MM = Missing Value Source: Averaged Metar Reports

Daily Weather History Graph

Daily Weather History Graph

Search for Another Location

Airport or City:

Trip Planner

Search our weather history database for the weather conditions in past years. The results will help you decide how hot, cold, wet, or windy it might be!

Date:

Astronomy

May. 14, 2014 Rise Set
Actual Time 5:15 AM PDT 8:34 PM PDT
Civil Twilight 4:37 AM PDT 9:13 PM PDT
Nautical Twilight 3:46 AM PDT 10:04 PM PDT
Astronomical Twilight 2:39 AM PDT 11:12 PM PDT
Moon 8:43 PM PDT (5/14) 5:22 AM PDT (5/14)
Length of Visible Light 16h 36m
Length of Day
15h 19m
Full, 100% of the Moon is Illuminated
May 14
Full
May 14
Full
May 21
Last Quarter
May 28
New
Jun 5
First Quarter

Hourly Weather History & Observations

Time (PDT) Temp. Dew Point Humidity Pressure Visibility Wind Dir Wind Speed Gust Speed Precip Events Conditions
12:00 AM 51.8 °F 41.0 °F 67% 30.36 in 15.0 mi North 8.1 mph - N/A   Clear
1:00 AM 50.0 °F 41.0 °F 71% 30.36 in 15.0 mi Variable 2.3 mph - N/A   Clear
2:00 AM 50.0 °F 41.0 °F 71% 30.36 in 15.0 mi Variable 2.3 mph - N/A   Clear
3:00 AM 50.0 °F 41.0 °F 71% 30.36 in 15.0 mi Calm Calm - N/A   Clear
4:00 AM 44.6 °F 39.2 °F 81% 30.37 in 15.0 mi Calm Calm - N/A   Clear
5:00 AM 47 °F 40 °F 70% 30.38 in 15 mi North 1.2 mph - -   Scattered Clouds
5:00 AM 46.4 °F 41.0 °F 81% 30.38 in 15.0 mi NW 2.3 mph - N/A   Partly Cloudy
6:00 AM 46.4 °F 41.0 °F 81% 30.38 in 15.0 mi Calm Calm - N/A   Scattered Clouds
7:00 AM 51.8 °F 44.6 °F 76% 30.38 in 15.0 mi Calm Calm - N/A   Scattered Clouds
8:00 AM 55.4 °F 44.6 °F 67% 30.37 in 15.0 mi Variable 2.3 mph - N/A   Mostly Cloudy
9:00 AM 60.8 °F 44.6 °F 55% 30.36 in 15.0 mi Calm Calm - N/A   Mostly Cloudy
10:00 AM 64.4 °F 42.8 °F 45% 30.34 in 15.0 mi North 4.6 mph - N/A   Mostly Cloudy
11:00 AM 68 °F 44 °F 31% 30.31 in 15 mi North 4.6 mph - -   Scattered Clouds
11:00 AM 68.0 °F 44.6 °F 43% 30.31 in 15.0 mi NNE 5.8 mph - N/A   Mostly Cloudy
12:00 PM 69.8 °F 46.4 °F 43% 30.28 in 15.0 mi North 5.8 mph - N/A   Mostly Cloudy
1:00 PM 73.4 °F 44.6 °F 36% 30.25 in 15.0 mi North 3.5 mph - N/A   Mostly Cloudy
2:00 PM 77.0 °F 46.4 °F 34% 30.21 in 15.0 mi North 8.1 mph - N/A   Scattered Clouds
3:00 PM 82.4 °F 46.4 °F 28% 30.17 in 15.0 mi SSE 8.1 mph - N/A   Scattered Clouds
4:00 PM 84.2 °F 46.4 °F 27% 30.15 in 15.0 mi South 11.5 mph - N/A   Scattered Clouds
5:00 PM 82 °F 46 °F 18% 30.12 in 15 mi South 12.7 mph - -   Scattered Clouds
5:00 PM 82.4 °F 46.4 °F 28% 30.12 in 15.0 mi South 12.7 mph - N/A   Partly Cloudy
6:00 PM 82.4 °F 46.4 °F 28% 30.09 in 15.0 mi South 13.8 mph - N/A   Partly Cloudy
7:00 PM 80.6 °F 46.4 °F 30% 30.08 in 15.0 mi SW 8.1 mph - N/A   Partly Cloudy
8:00 PM 75.2 °F 44.6 °F 34% 30.08 in 15.0 mi South 5.8 mph - N/A   Partly Cloudy
9:00 PM 66.2 °F 42.8 °F 43% 30.09 in 15.0 mi Calm Calm - N/A   Scattered Clouds
10:00 PM 64.4 °F 44.6 °F 49% 30.10 in 15.0 mi Variable 2.3 mph - N/A   Mostly Cloudy
11:00 PM 61 °F 44 °F 42% 30.11 in 15 mi SSE 2.3 mph - -   Scattered Clouds
11:00 PM 60.8 °F 44.6 °F 55% 30.11 in 15.0 mi Calm Calm - N/A   Mostly Cloudy